User: anonymous   Login
Location: Maiden
(35.5760°N, 81.2120°W)
Time: 15:57:59
(UTC-04:00)
Language:

Cosmos 2151 - Orbit

View from above orbital plane
View from above orbital plane
View from above satellite
View from above satellite

Ground track
Ground track

The orbit data is extracted from the following two-line orbital elements,

1 21422U 91042A   16126.16387956  .00000473  00000-0  44597-4 0  9995
2 21422  82.4994 274.6533 0013543 211.4924 148.5486 14.91609721347671
Epoch (UTC): 05 May 2016 03:55:59
Eccentricity: 0.0013543
inclination: 82.4994°
perigee height: 583 km
apogee height: 602 km
right ascension of ascending node: 274.6533°
argument of perigee: 211.4924°
revolutions per day: 14.91609721
mean anomaly at epoch: 148.5486°
orbit number at epoch: 34767

The dashed part of the orbit path shows where the satellite is in the earth's shadow,  

DLR